Location: Schommer Observatory
(40.5200°N, 74.4500°W)
Time: 21:31:31
(UTC-04:00)

ISS - Pass Details

Date: 21 May 2018
Orbit: 402 x 407 km, 51.6° (Epoch: 23 May)

Event Time Altitude Azimuth Distance (km) Brightness Sun altitude
Rises 02:33:03 0° 312° (NW) 2,319 0.2 -25.1°
Reaches altitude 10° 02:35:38 10° 334° (NNW) 1,458 -0.6 -24.9°
Maximum altitude 02:37:53 17° 17° (NNE) 1,104 -0.8 -24.7°
Drops below altitude 10° 02:40:08 10° 61° (ENE) 1,455 -0.3 -24.5°
Sets 02:42:43 0° 83° (E) 2,313 0.5 -24.3°
